Notices

What's New in latest Release from April 7th, 2021:

- Updated Glossary, including Speed of Maximum Gust, and Total Hourly Precipitation

- Updated national and regional climate services offices contacts and prices information

- Addition of station inventory lists for 1981-2010, 1971-2000, and 1961-1990 Normals.

If you haven't already, please take our survey and provide feedback about our website: https://eccc.sondage-survey.ca/f/LanguageSelection.aspx?s=442ca660-fcf1-47c0-95a9-59707d6fd709

Hourly Data Report for December 17, 2019

SAINT JOHN A
NEW BRUNSWICK
Current Station Operator: NAVCAN

45°18'58.000" N
65°53'24.000" W
108.80 m
8104901
71609
YSJ

Download Data

Hourly Data (December 2019)
Hourly Data Report for December 17, 2019
TIME
LST
Temp Definition
°C
Dew Point Definition
°C
Rel Hum Definition
%
Precip. Amount Definition
mm

Wind Dir Definition
10's deg

Wind Spd Definition
km/h
Visibility Definition
km
Stn Press Definition
kPa
Hmdx Definition


Wind Chill Definition


Weather Definition


00:00 -7.8 -17.8 45   28 17 24.1 100.45   -14 LegendNANA
01:00 -8.0 -16.1 52   26 16 24.1 100.44   -15 LegendNANA
02:00 -8.2 -14.9 59   27 9 24.1 100.43   -13 Clear
03:00 -8.0 -14.0 62   29 13 24.1 100.39   -14 LegendNANA
04:00 -8.0 -13.3 66   28 17 24.1 100.42   -15 LegendNANA
05:00 -8.5 -13.9 65   26 16 24.1 100.40   -15 Mainly Clear
06:00 -8.5 -13.0 70   26 17 24.1 100.43   -15 LegendNANA
07:00 -8.4 -12.5 72   28 11 24.1 100.39   -14 LegendNANA
08:00 -9.0 -12.2 78   36 2 24.1 100.40   -10 Mainly Clear
09:00 -8.2 -11.3 78   20 7 24.1 100.35   -12 LegendNANA
10:00 -5.5 -11.3 64   28 10 24.1 100.32   -10 LegendNANA
11:00 -3.0 -10.7 55   28 11 24.1 100.19   -7 Mainly Clear
12:00 -2.2 -10.2 54   30 11 24.1 100.09   -6 LegendNANA
13:00 -1.9 -10.0 54   29 14 24.1 99.97   -7 LegendNANA
14:00 -2.0 -10.0 54   29 10 24.1 99.92   -6 Cloudy
15:00 -1.9 -9.8 55   26 5 24.1 99.85   -4 LegendNANA
16:00 -1.9 -9.6 56   26 7 24.1 99.77   -5 LegendNANA
17:00 -2.1 -9.4 57   30 4 24.1 99.73   -4 Cloudy
18:00 -2.2 -9.3 59   34 3 24.1 99.59   -3 LegendNANA
19:00 -2.4 -8.4 63   31 4 24.1 99.66   -4 Snow
20:00 -2.4 -8.2 65   1 9 24.1 99.55   -6 Snow
21:00 -3.9 -5.6 88   36 9 4.8 99.50   -8 Snow
22:00 -4.0 -5.3 91   36 8 8.1 99.50   -7 Snow
23:00 -4.2 -5.5 90   2 14 9.7 99.37   -9 Snow

Notes on Data Quality.

Legend

  • E = Estimated
  • M = Missing
  • NA = Not Available*
  • [empty] = Indicates an unobserved value
Date modified: